This is the latest recevied weather packets stored in our database for station/object KD0JCP-10. If no packets are shown the sender has not sent any weather packets the latest 10 day(s).
| Time | Temp. | Humidity | Pressure | Rain* | Wind** | Luminosity | Snow |
|---|---|---|---|---|---|---|---|
| 1777567588 | 13.33° C | 47% | 1021.3 hPa | 0 mm | - | - | - |
| 1777567288 | 13.33° C | 50% | 1021.3 hPa | 0 mm | - | - | - |
| 1777566988 | 13.33° C | 49% | 1021.4 hPa | 0 mm | - | - | - |
| 1777566688 | 13.89° C | 47% | 1021.4 hPa | 0 mm | - | - | - |
| 1777566388 | 13.89° C | 47% | 1021.5 hPa | 0 mm | - | - | - |
| 1777566088 | 13.89° C | 51% | 1021.4 hPa | 0 mm | - | - | - |
| 1777565788 | 13.33° C | 54% | 1021.3 hPa | 0 mm | - | - | - |
| 1777565488 | 13.33° C | 50% | 1021.4 hPa | 0 mm | - | - | - |
| 1777565188 | 12.78° C | 53% | 1021.4 hPa | 0 mm | - | - | - |
| 1777564888 | 12.78° C | 59% | 1021.4 hPa | 0 mm | - | - | - |
| 1777564588 | 12.78° C | 61% | 1021.3 hPa | 0 mm | - | - | - |
| 1777564288 | 12.22° C | 62% | 1021.2 hPa | 0 mm | - | - | - |
| 1777563988 | 12.22° C | 60% | 1021.2 hPa | 0 mm | - | - | - |
| 1777563688 | 12.22° C | 60% | 1021.2 hPa | 0 mm | - | - | - |
| 1777563388 | 12.22° C | 61% | 1021.3 hPa | 0 mm | - | - | - |
| 1777563088 | 12.22° C | 64% | 1021.2 hPa | 0 mm | - | - | - |
| 1777562788 | 12.22° C | 65% | 1021.2 hPa | 0 mm | - | - | - |
| 1777562488 | 11.67° C | 67% | 1021.2 hPa | 0 mm | - | - | - |
| 1777562188 | 11.67° C | 66% | 1021.2 hPa | 0 mm | - | - | - |
| 1777561888 | 11.67° C | 68% | 1021.1 hPa | 0 mm | - | - | - |
| 1777561588 | 11.11° C | 68% | 1021.1 hPa | 0 mm | - | - | - |
| 1777561288 | 11.11° C | 68% | 1021.1 hPa | 0 mm | - | - | - |
| 1777560988 | 11.11° C | 68% | 1021 hPa | 0 mm | - | - | - |
| 1777560688 | 10.56° C | 72% | 1021 hPa | 0 mm | - | - | - |
| 1777560388 | 10.56° C | 71% | 1021.1 hPa | 0 mm | - | - | - |
* Rain latest hour (hover to see other rain measurements)
** Current wind speed in m/s (hover to see current wind gust speed)